Probability
0 0 0 0 0 0 0 0 0 0 0 0 0 0 0 0 0 0 0 0 0 1 2 4 4 1 1 2 2 2 3 4 4 4 3 1 0 0 0 1 2 3 3
0 0 0 0 0 0 0 0 0 0 0 0 0 0 0 0 0 0 0 0 0 1 2 2 2 1 1 2 3 3 3 4 5 5 3 1 0 0 0 1 2 2 1
0 0 0 0 0 0 0 0 0 0 0 0 0 0 0 0 0 0 0 0 0 1 1 0 1 2 2 3 3 3 3 4 4 4 2 1 0 0 0 0 1 1 0
0 0 0 0 0 0 0 0 0 0 0 0 0 0 0 0 0 0 0 0 0 0 0 0 0 1 2 3 3 3 3 3 2 2 1 0 0 0 0 0 0 0 0
0 0 0 0 0 0 0 0 0 0 0 0 0 0 0 0 0 0 0 0 0 0 0 0 0 0 1 2 3 3 2 1 1 2 1 0 0 1 1 0 0 0 0
0 0 0 0 0 0 0 0 0 0 0 0 0 0 0 0 0 0 0 0 0 0 0 0 0 0 0 1 2 2 1 0 1 2 2 1 1 2 2 1 0 0 0
0 0 0 0 0 0 0 0 0 0 0 0 0 0 0 0 0 0 0 0 0 0 0 0 0 0 0 0 1 1 0 0 0 1 1 2 3 3 3 1 1 0 0
0 0 0 0 0 0 0 0 0 0 0 0 0 0 0 0 0 0 0 0 0 0 0 0 0 0 0 0 0 0 0 0 0 0 1 2 3 4 3 3 2 1 0
0 0 0 0 0 0 0 0 0 0 0 0 0 0 0 0 0 0 0 0 0 0 0 0 0 0 0 0 0 0 0 0 0 0 0 1 2 2 2 2 2 1 0
0 0 0 0 0 0 0 0 0 0 0 0 0 0 0 0 0 0 0 0 0 0 0 0 0 0 0 0 0 0 0 0 0 0 0 0 0 0 1 1 1 0 0
0 0 0 0 0 0 0 0 0 0 0 0 0 0 0 0 0 0 0 0 0 0 0 0 0 0 0 0 0 0 0 0 0 0 0 0 0 0 0 0 0 0 0
0 0 0 0 0 0 0 0 0 0 0 0 0 0 0 0 0 0 0 0 0 0 0 0 0 0 0 0 0 0 0 0 0 0 0 0 0 0 0 1 0 0 0
0 0 0 0 0 0 0 0 0 0 0 0 0 0 0 0 0 0 0 0 0 0 0 0 0 0 0 0 0 0 0 0 0 0 0 0 0 0 0 0 0 0 0
0 0 0 0 0 0 0 0 0 0 0 0 0 0 0 0 0 0 0 0 0 0 0 0 0 0 0 0 0 0 0 0 0 0 0 0 0 0 0 0 0 0 0
0 0 0 0 0 0 0 0 0 0 0 0 0 0 0 0 0 0 0 0 0 0 0 0 0 0 0 0 0 0 0 0 0 0 0 0 0 0 0 0 0 0 0
0 0 0 0 0 0 0 0 0 0 0 0 0 0 0 0 0 0 0 0 0 0 0 0 0 0 0 0 0 0 0 0 0 0 0 0 0 0 0 0 0 0 0
0 0 0 0 0 0 0 0 0 0 0 0 0 0 0 0 0 0 0 0 0 0 0 0 0 0 0 0 0 0 0 0 0 0 0 0 0 0 0 0 0 0 0
0 0 0 0 0 0 0 0 0 0 0 0 0 0 0 0 0 0 0 0 0 0 0 0 0 0 0 0 0 0 0 0 0 0 0 0 0 0 0 0 0 0 0
0 0 0 0 0 0 0 0 0 0 0 0 0 0 0 0 0 0 0 0 0 0 0 0 0 0 0 0 0 0 0 0 0 0 0 0 0 0 0 0 0 0 0
0 0 0 0 0 0 0 0 0 0 0 0 0 0 0 0 0 0 0 0 0 0 0 0 0 0 0 0 0 0 0 0 0 0 0 0 0 0 0 0 0 0 0
0 0 0 0 0 0 0 0 0 0 0 0 0 0 0 0 0 0 0 0 0 0 0 0 0 0 0 0 0 0 0 0 0 0 0 0 0 0 0 0 0 0 0
0 0 0 0 0 0 0 0 0 0 0 0 0 0 0 0 0 0 0 0 0 0 0 0 0 0 0 0 0 0 0 0 0 0 0 0 0 0 0 0 0 0 0
0 0 0 0 0 0 0 0 0 0 0 0 0 0 0 0 0 0 0 0 0 0 0 0 0 0 0 0 0 0 0 0 0 0 0 0 0 0 0 0 0 0 0
0 0 0 0 0 0 0 0 0 0 0 0 0 0 0 0 0 0 0 0 0 0 0 0 0 0 0 0 0 0 0 0 0 0 0 0 0 0 0 0 0 0 0
0 0 0 0 0 0 0 0 0 0 0 0 0 0 0 0 0 0 0 0 0 0 0 0 0 0 0 0 0 0 0 0 0 0 0 0 0 0 0 0 0 0 0
0 0 1 1 1 0 0 0 0 0 0 0 0 0 0 0 0 0 0 0 0 0 0 0 0 0 0 0 0 0 0 0 0 0 0 0 0 0 0 0 0 0 0
Wind_Speed
2 1 1 2 2 2 2 1 2 3 4 5 4 5 5 5 5 5 4 10 12 11 11 11 11 10 10 9 9 9 9 9 9 9 10 10 10 11 11 10 9 9 9
2 2 2 3 2 1 2 2 3 3 3 3 4 5 4 4 4 5 4 6 10 11 11 12 11 11 10 10 10 10 10 10 10 9 10 10 10 10 10 10 10 9 10
3 3 3 2 2 2 3 3 3 3 3 3 4 4 4 4 4 5 4 3 4 8 10 11 12 11 11 11 11 10 10 10 10 10 10 10 10 10 10 10 10 10 10
4 3 2 2 2 3 2 2 2 3 3 3 3 3 3 3 4 4 3 4 3 4 6 10 11 12 11 11 11 10 10 10 10 10 10 10 10 10 10 9 9 9 9
4 3 2 1 3 2 2 2 3 2 3 3 2 3 2 3 3 4 4 4 4 4 3 6 9 10 11 10 10 10 10 10 10 10 10 10 10 9 9 9 9 9 9
4 3 2 2 3 2 2 2 2 2 2 2 3 3 2 2 2 3 3 4 3 4 4 4 3 6 10 10 10 10 10 11 10 10 10 10 10 9 9 8 8 9 10
3 3 2 3 3 2 2 2 2 2 1 2 2 2 2 2 3 2 2 3 3 4 4 4 3 3 4 9 10 10 10 10 10 10 10 10 10 9 9 9 9 9 10
2 3 2 2 2 2 2 2 2 1 0 0 1 2 1 2 2 2 2 3 3 3 4 4 4 4 4 3 7 10 10 10 11 11 11 11 10 10 9 8 8 9 9
2 2 3 2 2 2 2 1 2 1 1 1 1 1 2 1 1 1 2 3 3 3 3 3 4 4 5 4 4 8 11 10 11 11 10 11 10 10 10 10 10 10 10
2 2 2 2 2 2 2 1 2 0 1 0 1 1 1 2 2 1 1 2 3 3 3 3 4 4 4 4 6 9 11 11 11 11 11 11 10 11 12 11 11 11 11
2 2 1 1 1 1 2 1 1 0 0 0 0 1 1 1 1 2 1 1 1 2 2 2 3 3 4 4 4 7 10 10 10 11 11 11 11 12 13 12 12 12 11
1 2 1 0 1 1 1 1 1 1 1 1 0 0 1 1 1 2 2 2 2 1 1 2 3 2 3 4 6 9 9 9 10 11 11 12 12 12 13 12 12 11 11
1 1 1 0 1 1 1 1 1 0 1 1 0 0 1 1 1 2 2 1 2 1 1 2 2 2 3 3 4 7 8 8 9 10 10 11 11 12 12 12 12 12 12
1 2 1 1 1 1 1 1 1 0 1 0 1 1 0 1 1 2 2 2 1 0 1 1 2 2 2 3 3 4 4 7 8 9 9 10 10 11 11 11 11 11 11
1 2 2 1 2 1 1 1 0 1 0 1 1 1 1 1 1 1 2 2 3 2 1 1 1 1 2 3 4 3 3 6 7 7 8 8 8 9 9 10 10 10 10
1 2 1 1 2 2 2 2 1 1 1 1 1 1 1 1 1 1 1 1 1 2 1 1 1 2 2 3 5 3 3 6 6 6 6 7 7 8 8 8 9 9 8
2 2 2 1 1 2 3 2 1 0 0 1 1 2 1 1 1 1 1 1 2 2 3 1 1 2 2 2 2 2 3 3 3 5 5 6 6 7 7 7 8 8 8
1 2 2 2 1 1 1 2 1 1 1 1 1 1 1 2 1 1 1 2 1 2 3 2 1 1 2 2 1 1 2 3 3 5 5 5 5 6 6 7 7 7 7
1 1 1 2 2 1 1 1 2 2 1 1 1 1 1 2 1 1 2 1 1 2 2 3 1 1 1 1 1 0 1 1 3 5 5 4 4 4 4 5 5 5 5
2 1 1 1 2 1 1 1 2 2 2 1 1 2 2 2 2 2 2 1 2 2 2 2 1 1 1 0 1 0 0 0 0 1 2 4 4 3 3 3 4 4 4
1 1 1 1 1 1 1 1 1 1 1 2 2 2 3 5 6 4 2 2 2 2 2 2 1 1 0 1 1 1 0 1 0 0 1 1 2 1 1 1 2 3 3
1 1 1 1 1 1 3 3 1 1 0 1 2 2 4 5 6 6 7 6 4 2 2 1 1 1 1 1 1 1 1 0 1 1 1 1 1 1 1 1 3 4 3
1 1 1 1 1 2 3 2 1 1 1 1 0 2 2 3 5 4 4 4 3 3 3 2 2 1 1 2 2 1 1 1 2 1 1 1 0 0 1 2 5 4 3
2 2 1 1 1 1 2 2 1 1 1 1 1 1 2 3 3 4 4 3 2 1 2 2 2 1 1 1 2 2 2 1 0 0 2 1 1 1 0 1 3 4 3
2 2 2 2 2 1 2 2 2 1 1 2 1 0 1 2 3 5 4 4 3 2 2 4 4 4 4 3 3 2 1 1 1 1 1 1 1 1 1 1 2 3 3
3 2 2 2 2 2 3 4 4 1 1 1 0 0 2 2 3 4 2 2 3 3 3 2 1 1 1 1 2 2 2 1 1 1 1 1 1 0 1 1 1 1 1
Wind_Direction
103 99 94 86 90 98 97 81 72 66 53 55 60 65 59 66 82 83 73 69 69 64 63 63 64 64 63 64 62 57 54 52 51 50 45 43 38 34 38 45 43 38 36
92 83 82 78 69 75 85 93 95 82 68 64 57 58 59 63 76 95 98 78 70 67 63 60 60 61 62 65 65 60 56 54 52 49 48 44 41 38 40 43 43 41 37
85 76 74 78 74 69 69 76 87 88 91 83 75 65 56 52 56 78 90 97 82 68 68 65 60 59 62 63 63 61 58 55 52 49 49 46 43 40 39 39 41 40 37
86 77 72 65 72 71 73 82 82 76 76 74 70 69 68 61 50 62 74 83 89 82 69 69 65 58 59 60 60 59 59 56 53 50 48 45 44 42 41 39 40 39 37
82 81 72 74 79 72 68 73 71 74 81 82 81 78 73 68 54 56 62 71 78 84 83 74 67 60 56 58 57 58 58 57 54 49 46 44 44 43 42 40 42 40 40
71 81 75 72 77 73 70 75 86 85 93 105 90 80 84 91 72 54 54 61 63 70 73 75 72 63 59 56 56 55 55 55 54 49 46 45 45 43 43 42 44 44 43
83 81 72 64 67 68 78 95 96 91 89 105 94 70 52 72 87 74 65 63 60 65 65 66 60 65 60 50 46 50 51 51 52 50 48 46 46 43 43 44 45 46 45
92 110 101 92 88 79 60 75 99 87 87 130 118 111 78 38 35 68 73 78 71 66 57 60 56 57 66 62 47 48 47 46 47 47 48 47 44 39 39 42 46 49 50
71 73 90 97 106 114 108 109 104 108 118 311 24 110 124 127 85 34 70 83 77 69 59 52 54 57 68 66 54 43 48 45 45 45 47 47 44 39 41 47 52 56 55
109 97 88 90 105 107 123 130 107 82 99 340 335 2 85 128 135 120 27 70 79 76 72 61 52 54 61 65 66 58 52 47 45 45 46 45 42 42 46 53 54 56 56
109 118 104 81 85 111 122 104 104 96 106 79 46 31 36 44 111 132 135 110 64 64 80 84 71 63 60 65 73 64 57 51 46 44 44 44 44 46 51 53 55 56 56
136 127 138 151 123 104 106 130 142 171 158 94 44 92 127 120 117 109 131 140 123 108 96 89 88 86 77 66 71 72 64 57 54 50 46 45 47 48 49 51 53 54 54
134 150 142 147 131 128 134 117 124 210 155 148 158 19 41 101 121 117 115 125 122 152 116 96 112 103 93 89 80 78 70 65 60 57 53 49 47 47 48 49 50 50 50
147 154 139 118 106 106 100 92 85 69 52 105 120 130 82 49 90 116 133 130 114 95 93 121 102 111 105 104 103 95 78 77 70 64 59 55 51 48 47 48 48 48 47
151 129 135 128 97 84 81 102 107 111 47 66 67 72 99 99 86 97 120 140 144 140 162 154 115 128 121 109 122 116 100 91 83 72 64 60 55 51 49 48 47 47 48
111 106 115 128 134 129 102 74 41 35 55 100 101 78 67 71 78 78 71 47 111 140 137 158 148 142 130 123 122 123 119 112 98 84 70 64 59 54 51 49 46 45 46
155 157 164 144 128 142 143 136 141 96 38 70 97 115 112 101 97 89 80 65 59 97 113 104 101 121 119 115 119 136 140 131 113 102 85 74 67 60 55 52 49 46 45
171 160 155 147 139 118 131 139 156 136 71 59 56 110 141 126 110 97 89 85 88 109 124 127 109 103 113 127 123 139 140 140 139 124 116 98 82 71 62 55 54 51 48
175 156 140 145 149 153 171 163 168 163 132 107 85 99 102 118 118 101 102 95 92 96 107 124 131 113 100 111 86 47 107 114 144 139 140 132 111 95 79 69 63 57 51
179 176 169 154 153 167 194 209 168 154 151 153 118 95 89 90 104 111 106 109 105 102 101 109 123 131 124 134 105 150 322 354 116 137 139 148 145 135 106 89 80 70 56
171 143 132 113 114 107 62 63 58 151 155 149 143 125 110 106 98 94 92 94 99 113 122 131 148 118 118 116 203 207 207 227 264 116 135 155 142 127 116 120 117 101 81
144 132 152 142 112 86 76 61 32 16 52 183 170 150 141 132 119 105 93 85 87 116 141 135 149 159 207 193 187 174 194 122 300 309 119 269 129 146 180 163 145 137 123
162 150 149 126 122 126 126 99 50 351 304 293 216 171 168 143 147 148 127 105 82 86 118 142 131 181 198 205 168 185 210 175 196 229 114 289 342 109 201 156 146 146 144
168 165 172 160 149 159 172 181 194 242 271 269 265 216 157 158 167 158 151 148 151 158 169 160 169 188 130 117 147 164 184 170 186 15 115 187 287 275 246 162 153 151 159
182 180 180 168 162 171 184 190 177 209 228 253 263 347 167 160 156 158 157 163 170 193 174 157 154 138 110 89 82 73 47 68 291 273 174 154 259 293 284 231 210 184 175
180 175 176 173 182 187 198 193 183 195 208 224 211 78 64 127 131 135 151 169 188 205 174 158 158 163 183 164 135 145 156 168 212 277 268 164 236 68 317 295 286 210 205